Weather in Gorchukha

Russia / Kostroma Oblast     57°42′21″N   43°43′12″E
temp.,
°C
wind,
m/s
gust,
m/s
humid.,
%
clouds,
%
prec.,
mm/h
press.,
hPa
HPBL,
m
16 october, sat
sat1600:00+4sw5118513 0.0 1014542
03:00+5ssw41082100 0.0 1014618
06:00+5ssw51288100 0.0 1013607
09:00+6ssw61385100 0.0 1012688
12:00+8ssw61377100 0.0 1012785
15:00+9ssw71474100 0.0 1010887
18:00+8ssw71470100 0.0 10101008
21:00+8sw71578100 0.6 10091326
17 october, sun
sun1700:00+7wsw5989100 1.3 10091102
03:00+4sw410915 1.4 1010377
06:00+4sw4119414 0.0 1010438
09:00+6sw5128330 0.0 1010671
12:00+8sw61170100 0.0 1009966
15:00+8sw6107295 0.0 10091202
18:00+7sw51073100 0.0 1009936
21:00+6sw5985100 0.2 10091028
18 october, mon
mon1800:00+6wsw499092 0.3 1008927
03:00+5sw399136 0.4 1008430
06:00+4sw3993100 0.0 1008381
09:00+5ssw378588 0.0 1008426
12:00+7ssw5876100 0.1 1006979
15:00+7ssw61384100 2.0 10031423
18:00+3w3795100 2.1 1006420
21:00+1sw39935 2.1 1007340
19 october, tue
tue1900:00+1sw38955 0.0 1008258
03:000sw37979 0.0 1008190
06:000sw269893 0.1 1009177
09:00+2w359198 0.3 1009401
12:00+4wnw456894 0.1 10101201
15:00+3wnw3574100 0.3 1011636
18:00+2wnw379590 0.1 1012500
21:00+1nw3687100 0.1 1013598
20 october, wed
wed2000:00+1nw3680100 0.1 1013738
03:00+1nw4885100 0.1 1015676
06:00−2nw489310 0.0 1017360
09:00−1nw48796 0.0 1018511
12:00+2nw45545 0.0 10191111
15:00+2nw34515 0.0 10191298
18:00−2w22718 0.0 102024
21:00−2ssw247513 0.0 101963